Simultaneous Nadir Overpasses (SNOs) Predictions

Prediction of SNOs between NOAA-15 and METOP-C Satellite Orbit:

Table of predicted SNOs for the next 14.0 days since TLE Epoch: 7/16/2022
Index Date (NOAA-15) Time (NOAA-15) Lat,Lon (NOAA-15) SZA (NOAA-15 ) Date (METOP-C) Time (METOP-C) Lat,Lon (METOP-C) SZA (METOP-C ) Distance(km) Time Diff (sec)
1 07/23/2022 16:10:30 -81.07, 155.49 117.09 07/23/2022 16:09:27 -81.06, 155.34 117.14 2.70 63
2 07/23/2022 17:01:05 81.08, -37.23 62.91 07/23/2022 17:00:07 81.06, -37.30 62.87 1.64 58
3 07/23/2022 17:51:32 -81.08, 130.13 117.09 07/23/2022 17:50:48 -81.07, 130.21 117.10 1.41 44
4 07/23/2022 18:42:07 81.08, -62.59 62.92 07/23/2022 18:41:28 81.07, -62.43 62.92 2.85 39
5 07/23/2022 19:32:34 -81.08, 104.78 117.08 07/23/2022 19:32:10 -81.07, 104.71 117.11 1.95 24
6 07/23/2022 20:23:08 81.07, -87.58 62.95 07/23/2022 20:22:49 81.08, -87.56 62.96 1.55 19
7 07/23/2022 21:13:36 -81.08, 79.42 117.07 07/23/2022 21:13:31 -81.07, 79.58 117.06 3.02 5
8 07/23/2022 22:04:10 81.07,-112.94 62.96 07/23/2022 22:04:11 81.08,-113.06 62.95 2.22 1
9 07/23/2022 22:54:37 -81.07, 54.43 117.04 07/23/2022 22:54:52 -81.08, 54.45 117.02 1.09 15
10 07/23/2022 23:45:12 81.08,-138.29 62.97 07/23/2022 23:45:32 81.08,-138.19 62.99 1.91 20
11 07/24/2022 00:35:39 -81.08, 29.07 117.03 07/24/2022 00:36:14 -81.08, 28.95 117.03 2.16 35
12 07/24/2022 01:26:14 81.08,-163.65 62.98 07/24/2022 01:26:54 81.08,-163.69 62.99 0.84 40
13 07/24/2022 02:16:41 -81.08, 3.71 117.02 07/24/2022 02:17:35 -81.08, 3.82 116.99 1.79 54
14 07/24/2022 03:07:16 81.09, 170.99 62.99 07/24/2022 03:08:15 81.09, 171.18 63.03 3.20 59



Historial Predications of SNOs between NOAA-15 and METOP-C
